[[{"header":{"parameterUnit":"m.s-1","parameterCategory":1,"la1":30.2991,"la2":30.254,"lo1":-89.0895,"lo2":-89.0444,"dy":0.0017,"dx":0.0017,"nx":28,"ny":28,"refTime":"2024-09-28T09:00:00:Z","depth":0,"parameterNumber":2,"parameterNumberName":"U-component_of_WINDS"},"data":[0,0,0,0,0,0,0,0,0,0,0,0,0,0,0,0,0,0,0,0,0,0,0,0,0,0,0,0,0,0,0,0,0,0,0,0,0,0,0,0,0,0,0,0,0,0,0,0,0,0,0,0,0,0,0,0,0,0,6.116,6.1161,0,6.125,6.1251,6.1252,6.1223,6.1221,6.1219,6.1217,6.1311,6.1316,6.132,0,0,0,0,0,0,0,0,0,0,0,0,0,6.0968,6.0971,6.116,6.1161,6.1163,6.125,6.1251,6.1252,6.1223,6.1221,6.1219,6.1217,6.131,6.1315,6.132,0,0,0,0,0,0,0,0,0,0,0,0,0,6.1054,6.0973,6.116,6.1159,6.1159,6.1249,6.1251,6.1252,6.1224,6.1221,6.1218,6.1215,6.1308,6.1315,6.1321,6.1418,0,0,6.1341,6.1343,0,0,0,0,0,0,0,0,6.1049,6.1061,6.1158,6.1159,6.116,6.1222,6.1217,6.1308,6.1225,6.12,6.1217,6.1214,6.1284,6.1292,6.1316,6.1423,6.1427,6.1341,6.1345,6.1348,6.135,0,0,0,0,0,0,0,6.1043,6.1057,6.1196,6.1159,6.1161,6.1155,6.1164,6.1234,6.1257,6.1201,6.12,6.121,6.1284,6.131,6.1318,6.1428,6.1341,6.1347,6.1351,6.1353,6.1621,6.1624,0,0,0,0,0,0,6.1036,6.1052,6.1193,6.1198,6.1096,6.116,6.117,6.1205,6.1256,6.1261,6.1213,6.1209,6.13,6.131,6.1321,6.1439,6.1348,6.1354,6.1358,6.1618,6.1622,6.1625,0,0,0,0,0,0,6.1032,6.1049,6.1189,6.1125,6.1142,6.1167,6.1206,6.1209,6.1234,6.1265,6.1269,6.1234,6.1298,6.1312,6.1394,6.1441,6.1357,6.1363,6.1614,6.1619,6.1624,6.1675,0,0,0,0,0,0,6.1026,6.1047,6.1084,6.1126,6.1146,6.126,6.1209,6.1212,6.1244,6.124,6.1286,6.1291,6.1297,6.1385,6.1401,6.1449,6.1368,6.161,6.1616,6.1622,6.1669,6.1681,6.1691,0,0,0,0,0,6.102,6.1095,6.1086,6.1103,6.1192,6.1263,6.1275,6.1279,6.1248,6.1286,6.1306,6.1289,6.1434,6.1394,6.1411,6.1462,6.1607,6.1615,6.1622,6.1664,6.1678,6.1691,0,0,0,0,0,0,6.1058,6.11,6.1091,6.1181,6.1219,6.1258,6.1305,6.1294,6.1342,6.1336,6.1341,6.1352,6.1436,6.1458,6.1412,6.156,6.1516,6.1527,6.1542,6.1556,6.1567,6.156,6.1373,0,0,0,0,0,6.1077,6.1131,6.1165,6.1242,6.1261,6.128,6.1312,6.1312,6.1352,6.1367,6.1394,6.1433,6.1488,6.1523,6.1575,6.1672,6.1682,6.1716,6.1727,6.1736,6.1745,6.1799,6.1815,6.165,6.1649,6.1649,0,0,6.1117,6.1147,6.118,6.1251,6.128,6.1336,6.1294,6.1355,6.1397,6.1377,6.1456,6.1477,6.1522,6.1612,6.1654,6.1633,6.1793,6.1745,6.1752,6.1757,6.1808,6.1824,6.1838,6.1655,6.1654,6.1653,0,0,6.1218,6.1246,6.1313,6.1343,6.1388,6.14,6.1417,6.1458,6.1471,6.1551,6.1537,6.1588,6.1682,6.1714,6.1743,6.1859,6.1845,6.1876,6.1933,6.1985,6.1998,6.201,6.2051,6.2066,6.1885,6.1885,6.1885,0,6.1262,6.1345,6.1349,6.1412,6.1444,6.1428,6.1497,6.1527,6.1586,6.1609,6.1585,6.1702,6.1731,6.183,6.1858,6.1882,6.1901,6.187,6.1996,6.2007,6.2018,6.2058,6.2073,6.1889,6.1888,6.1888,6.1888,0,6.1397,6.1456,6.1505,6.1563,6.16,6.1666,6.1681,6.1719,6.1717,6.1732,6.1814,6.1849,6.1908,6.1931,6.193,6.203,6.2016,6.1994,6.195,6.2037,6.2074,6.209,6.1893,6.1892,6.1891,6.189,0,0,6.1523,6.1583,6.1601,6.1628,6.1677,6.1722,6.1788,6.1845,6.1878,6.192,6.1976,6.2056,6.2036,6.2069,6.2072,6.2118,6.2208,6.2091,6.2092,6.2111,6.2321,6.2336,6.2354,6.22,6.2203,6.2205,6.2317,0,6.1628,6.1742,6.1749,6.1853,6.1907,6.1894,6.1952,6.1989,6.2006,6.2055,6.2074,6.2131,6.2101,6.212,6.2166,6.2187,6.225,6.218,6.2252,6.2255,6.224,6.2373,6.239,6.2493,6.2332,6.2334,6.2336,0,6.1765,6.1812,6.1921,6.1963,6.1986,6.2038,6.2091,6.2139,6.2181,6.219,6.2227,6.2224,6.2293,6.2248,6.2343,6.2295,6.2325,6.2341,6.2345,6.2351,6.23,6.2382,6.2526,6.2541,6.2359,6.2357,6.2355,0,6.1846,6.1936,6.2013,6.2036,6.2087,6.2124,6.2147,6.2186,6.2221,6.2268,6.2291,6.2346,6.2376,6.2419,6.2431,6.2397,6.2527,6.2482,6.2537,6.2536,6.2563,6.2561,6.2713,6.2585,6.2584,6.2584,6.2584,0,6.1962,6.2029,6.205,6.2097,6.2173,6.2181,6.2256,6.2277,6.2312,6.2365,6.2358,6.2407,6.242,6.2472,6.2483,6.256,6.2574,6.2584,6.2586,6.2584,6.2583,6.2603,6.2596,6.2588,6.2587,6.2586,6.2586,0,6.2064,6.208,6.2164,6.2206,6.2218,6.2272,6.2308,6.2355,6.2371,6.2437,6.2453,6.2479,6.2541,6.2557,6.2631,6.2638,6.2729,6.2725,6.2714,6.2714,6.2767,6.2762,6.2937,6.296,6.2817,6.2818,6.282,0,6.2136,6.2188,6.2236,6.227,6.2294,6.235,6.2385,6.2395,6.2432,6.2485,6.2525,6.2585,6.2634,6.2733,6.2759,6.2816,6.2812,6.287,6.282,6.2817,6.2812,6.2809,6.2814,6.2879,6.288,6.2881,6.2882,0,6.2263,6.2269,6.2319,6.2373,6.2415,6.2458,6.2499,6.2528,6.2545,6.2587,6.2649,6.2687,6.2762,6.2822,6.288,6.2905,6.2897,6.2898,6.2913,6.2912,6.2903,6.2908,6.2739,6.2893,6.2892,6.2892,6.2891,6.289,6.2352,6.2397,6.2438,6.2495,6.2527,6.2567,6.2612,6.2634,6.2686,6.2748,6.2751,6.2819,6.2862,6.2938,6.2967,6.3021,6.3003,6.3026,6.3031,6.3037,6.3041,6.2896,6.3031,6.3031,6.3031,6.303,6.303,0,6.2478,6.2504,6.2556,6.2614,6.2659,6.2647,6.2693,6.2732,6.2791,6.2831,6.2879,6.2952,6.3011,6.3042,6.3101,6.3138,6.3136,6.3153,6.315,6.3156,6.3053,6.3033,6.3154,6.3154,6.3154,6.3154,6.3154,6.3154,6.2548,6.2625,6.2636,6.2729,6.2755,6.282,6.2847,6.2884,6.2916,6.2997,6.3045,6.3065,6.3103,6.3164,6.3218,6.3226,6.3248,6.3267,6.3273,6.3176,6.3163,6.3151,6.3133,6.3272,6.3272,6.3371,6.3372,6.3373]},{"header":{"parameterUnit":"m.s-1","parameterCategory":1,"la1":30.2991,"la2":30.254,"lo1":-89.0895,"lo2":-89.0444,"dy":0.0017,"dx":0.0017,"nx":28,"ny":28,"refTime":"2024-09-28T09:00:00:Z","depth":0,"parameterNumber":3,"parameterNumberName":"V-component_of_WINDS"},"data":[0,0,0,0,0,0,0,0,0,0,0,0,0,0,0,0,0,0,0,0,0,0,0,0,0,0,0,0,0,0,0,0,0,0,0,0,0,0,0,0,0,0,0,0,0,0,0,0,0,0,0,0,0,0,0,0,0,0,3.3979,3.398,0,3.4105,3.4106,3.4107,3.4152,3.4152,3.4151,3.4151,3.4277,3.4281,3.4284,0,0,0,0,0,0,0,0,0,0,0,0,0,3.3776,3.3779,3.3979,3.3981,3.3982,3.4104,3.4106,3.4108,3.4152,3.4152,3.4151,3.4151,3.4276,3.428,3.4285,0,0,0,0,0,0,0,0,0,0,0,0,0,3.3879,3.378,3.3979,3.4019,3.4024,3.4104,3.4106,3.4108,3.4152,3.4152,3.4151,3.415,3.4274,3.428,3.4285,3.4334,0,0,3.4303,3.4305,0,0,0,0,0,0,0,0,3.3873,3.3886,3.4012,3.4016,3.4022,3.4112,3.4081,3.4184,3.4152,3.4103,3.4151,3.415,3.4223,3.4232,3.4257,3.434,3.4345,3.4303,3.4307,3.4309,3.4311,0,0,0,0,0,0,0,3.3866,3.3881,3.4029,3.4013,3.402,3.403,3.4044,3.41,3.4165,3.4108,3.4111,3.4126,3.4225,3.4252,3.4261,3.4347,3.4303,3.4308,3.4312,3.4314,3.4475,3.4476,0,0,0,0,0,0,3.3852,3.3875,3.4025,3.4032,3.3944,3.4034,3.405,3.4084,3.4165,3.4176,3.4126,3.4127,3.4242,3.4254,3.4265,3.4327,3.4309,3.4314,3.4318,3.4475,3.4476,3.4477,0,0,0,0,0,0,3.3848,3.3865,3.402,3.3955,3.3975,3.4039,3.4076,3.4087,3.4113,3.4179,3.419,3.4141,3.4242,3.4257,3.4317,3.4332,3.4317,3.4322,3.4473,3.4475,3.4476,3.4451,0,0,0,0,0,0,3.3841,3.3863,3.3883,3.3955,3.3978,3.4069,3.4077,3.409,3.4123,3.4126,3.4196,3.4207,3.4243,3.4308,3.4322,3.434,3.4326,3.4472,3.4474,3.4476,3.4451,3.4452,3.4452,0,0,0,0,0,3.3834,3.387,3.3883,3.3901,3.4004,3.407,3.4084,3.4125,3.4124,3.4144,3.4186,3.4205,3.4328,3.4314,3.433,3.435,3.4472,3.4474,3.4476,3.4451,3.4452,3.4452,0,0,0,0,0,0,3.3797,3.388,3.3896,3.3957,3.4006,3.4078,3.4104,3.4124,3.4175,3.4175,3.4223,3.4239,3.4294,3.4328,3.431,3.4401,3.4401,3.4406,3.4377,3.4378,3.4378,3.4369,3.4331,0,0,0,0,0,3.3796,3.3844,3.3913,3.396,3.3984,3.404,3.407,3.4098,3.415,3.4171,3.4218,3.4268,3.4318,3.435,3.44,3.4456,3.4472,3.4478,3.4478,3.4479,3.4483,3.4515,3.4518,3.4483,3.4483,3.4483,0,0,3.3795,3.3846,3.3873,3.3954,3.3996,3.4043,3.4057,3.4106,3.4142,3.4179,3.4238,3.4273,3.4332,3.4391,3.4419,3.442,3.4496,3.4481,3.4481,3.4485,3.4517,3.4521,3.4524,3.4485,3.4484,3.4484,0,0,3.3816,3.3859,3.3903,3.3945,3.4008,3.4045,3.4055,3.4124,3.4149,3.4209,3.4238,3.4281,3.4366,3.4407,3.4439,3.4476,3.4495,3.449,3.4493,3.4524,3.4527,3.453,3.4543,3.4547,3.4494,3.4494,3.4494,0,3.3805,3.3878,3.3923,3.3971,3.4006,3.4042,3.4087,3.4125,3.42,3.4223,3.4224,3.4333,3.4375,3.4443,3.4452,3.4477,3.449,3.4482,3.4523,3.4526,3.4529,3.4542,3.4547,3.4493,3.4493,3.4493,3.4494,0,3.3862,3.3912,3.394,3.4013,3.4051,3.4097,3.4148,3.4181,3.4205,3.4241,3.4302,3.4354,3.4415,3.4434,3.4458,3.4505,3.4505,3.4514,3.4515,3.4531,3.4544,3.4549,3.4492,3.4492,3.4492,3.4493,0,0,3.3863,3.3961,3.397,3.4004,3.4076,3.4115,3.4163,3.4223,3.425,3.4301,3.4342,3.4414,3.4423,3.4459,3.4488,3.4515,3.4541,3.4522,3.4524,3.4523,3.4597,3.4589,3.4594,3.4554,3.4555,3.4556,3.4591,0,3.3893,3.398,3.4022,3.409,3.4137,3.4172,3.4214,3.4262,3.4298,3.4342,3.4381,3.4431,3.4439,3.4461,3.449,3.4532,3.4556,3.453,3.4592,3.4593,3.4576,3.4601,3.4592,3.4623,3.4597,3.4598,3.4598,0,3.394,3.3991,3.4065,3.4132,3.4153,3.419,3.4248,3.4291,3.4346,3.437,3.4411,3.4439,3.4489,3.4487,3.4558,3.4539,3.4567,3.4591,3.4593,3.46,3.4596,3.4608,3.4634,3.4638,3.4607,3.4606,3.4605,0,3.3932,3.402,3.4076,3.4103,3.4183,3.4208,3.4242,3.4298,3.4331,3.4382,3.4405,3.4461,3.4491,3.4534,3.4576,3.4571,3.4642,3.4644,3.4663,3.4662,3.4676,3.4674,3.4706,3.4694,3.4694,3.4694,3.4694,0,3.3961,3.4004,3.4073,3.4107,3.4157,3.4204,3.4251,3.4288,3.4337,3.4379,3.4413,3.4451,3.4505,3.4549,3.4583,3.4635,3.4649,3.4669,3.4677,3.4666,3.4663,3.4685,3.4683,3.4695,3.4695,3.4695,3.4695,0,3.3961,3.4009,3.4071,3.4142,3.4161,3.4194,3.4255,3.4289,3.4326,3.4378,3.4393,3.4451,3.4505,3.4552,3.4623,3.4646,3.47,3.4711,3.4682,3.4686,3.4702,3.47,3.4749,3.4758,3.474,3.474,3.474,0,3.3976,3.401,3.4085,3.4115,3.415,3.4198,3.4233,3.4281,3.4316,3.4382,3.4408,3.4465,3.4513,3.4598,3.4646,3.4701,3.4712,3.4726,3.4721,3.4708,3.4712,3.471,3.4713,3.4726,3.4726,3.4725,3.4725,0,3.3997,3.4019,3.4069,3.4127,3.4167,3.4215,3.4263,3.4286,3.4343,3.438,3.4437,3.4474,3.4547,3.4603,3.4663,3.4698,3.4721,3.4727,3.4734,3.4722,3.4704,3.4714,3.4682,3.4725,3.4725,3.4725,3.4725,3.4725,3.4005,3.4037,3.4095,3.4149,3.4191,3.4235,3.4271,3.4313,3.4361,3.4425,3.445,3.4507,3.4563,3.4646,3.4681,3.4726,3.473,3.474,3.4743,3.4744,3.4743,3.4697,3.4737,3.4737,3.4737,3.4737,3.4737,0,3.4028,3.4067,3.4116,3.4183,3.4226,3.4245,3.4299,3.4333,3.4384,3.4433,3.448,3.4545,3.46,3.4653,3.471,3.4736,3.4748,3.4749,3.4747,3.4755,3.4736,3.4724,3.4739,3.4739,3.4739,3.4738,3.4738,3.4738,3.4044,3.41,3.4129,3.4206,3.4245,3.4302,3.4331,3.4373,3.4413,3.4484,3.453,3.4564,3.4615,3.4676,3.4727,3.4741,3.4761,3.4759,3.4776,3.4757,3.4756,3.4756,3.4745,3.4763,3.4763,3.4791,3.4791,3.4791]}]]